SCS-01 E (63986 NORAD) Tracking and Keplerian Element Data

This shows tracking and keplerian element data for the satellite.

Feedback or suggestion? Click here.




ElementValue
Catalog63986
NameSCS-01 E
Epoch Orbit3312
Epoch Day352.15476635
Epoch Year2025
RAAN63.8903
Inclination97.3854
Eccentricity0.0012555
Argument of Perigee219.0199
Mean Anonmoly141.0133
Mean Motion15.22541266
Decay Rate5.402E-05
L11 63986U 25100E 25352.15476635 .00005402 00000+0 23542-3 0 9993
L22 63986 97.3854 63.8903 0012555 219.0199 141.0133 15.22541266 33124



Live tracking and technical data element details for SCS-01 E (NORAD 63986). SCS-01 E can be tracked NOW for your location showing map with azimuth and elevation plus other details from your city location.







IsCatalogInMostPopularTable: catalog: 63986, numindb: 5
Update: records affected: 1



GetName: 63986 SCS-01 E

Hit Count: updated at: Wed, 15 Apr 2026 00:51:49 GMT